Tallulah, LA

7:23 PM CDT on August 31, 2016 (GMT -0500)
Vicksburg Tallulah Regional

Weather History for KTVR - September, 2014

Change the Weather History Date:

Thursday, September 25, 2014

  Actual Average Record
Temperature  
Mean Temperature 71 °F 72 °F  
Max Temperature 87 °F 85 °F 94 °F (1993)
Min Temperature 54 °F 60 °F 43 °F (1949)
Degree Days  
Heating Degree Days 0 0  
Month to date heating degree days 0 0  
Since 1 July heating degree days 0 0  
Cooling Degree Days 6 8  
Month to date cooling degree days 334 272  
Year to date cooling degree days 1992 2061  
Growing Degree Days 20 (Base 50)    
Moisture  
Dew Point 57 °F    
Average Humidity 68    
Maximum Humidity 100    
Minimum Humidity 36    
Precipitation  
Precipitation 0.00 in 0.07 in 2.63 in (2000)
Month to date precipitation 0.98 2.41  
Year to date precipitation 45.22 38.98  
Sea Level Pressure  
Sea Level Pressure 30.18 in    
Wind  
Wind Speed 3 mph (ENE)    
Max Wind Speed 12 mph    
Max Gust Speed 16 mph    
Visibility 10 miles    
Events      
T = Trace of Precipitation, MM = Missing Value Source: NWS Daily Summary

Daily Weather History Graph

Daily Weather History Graph

Search for Another Location

Airport or City:

Trip Planner

Search our weather history database for the weather conditions in past years. The results will help you decide how hot, cold, wet, or windy it might be!

Date:

Astronomy

Sep. 25, 2014 Rise Set
Actual Time 6:54 AM CDT 6:56 PM CDT
Civil Twilight 6:29 AM CDT 7:21 PM CDT
Nautical Twilight 6:01 AM CDT 7:49 PM CDT
Astronomical Twilight 5:32 AM CDT 8:18 PM CDT
Moon 8:06 AM CDT (9/25) 7:47 PM CDT (9/25)
Length of Visible Light 12h 51m
Length of Day
12h 02m
New Moon, 2% of the Moon is Illuminated
Sep 25
New Moon
Oct 1
First Quarter
Oct 8
Full
Oct 15
Last Quarter
Oct 23
New

Hourly Weather History & Observations

Time (CDT) Temp. Heat Index Dew Point Humidity Pressure Visibility Wind Dir Wind Speed Gust Speed Precip Events Conditions
12:53 AM 59.0 °F - 57.9 °F 96% 30.18 in 10.0 mi Calm Calm - N/A   Clear
1:53 AM 59.0 °F - 57.0 °F 93% 30.18 in 10.0 mi Calm Calm - N/A   Clear
2:53 AM 57.9 °F - 57.0 °F 97% 30.17 in 10.0 mi Calm Calm - N/A   Clear
3:53 AM 57.0 °F - 55.9 °F 96% 30.18 in 10.0 mi Calm Calm - N/A   Clear
4:29 AM 55.9 °F - 55.0 °F 97% 30.17 in 10.0 mi Calm Calm - N/A   Partly Cloudy
4:53 AM 55.0 °F - 54.0 °F 96% 30.20 in 10.0 mi NW 3.5 mph - N/A   Clear
5:53 AM 55.0 °F - 53.1 °F 93% 30.20 in 10.0 mi Calm Calm - N/A   Partly Cloudy
6:53 AM 54.0 °F - 53.1 °F 97% 30.21 in 10.0 mi Calm Calm - N/A   Clear
7:05 AM 54.0 °F - 54.0 °F 100% 30.19 in 10.0 mi Calm Calm - N/A   Scattered Clouds
7:14 AM 55.9 °F - 54.0 °F 93% 30.19 in 10.0 mi Calm Calm - N/A   Mostly Cloudy
7:38 AM 57.9 °F - 57.0 °F 97% 30.20 in 10.0 mi Calm Calm - N/A   Scattered Clouds
7:53 AM 61.0 °F - 60.1 °F 97% 30.22 in 10.0 mi Calm Calm - N/A   Clear
8:53 AM 72.0 °F - 61.0 °F 68% 30.22 in 10.0 mi ESE 8.1 mph - N/A   Clear
9:53 AM 75.9 °F - 60.1 °F 58% 30.24 in 10.0 mi SE 6.9 mph - N/A   Clear
10:53 AM 81.0 °F 81.6 °F 60.1 °F 49% 30.23 in 10.0 mi Variable 5.8 mph - N/A   Clear
11:53 AM 82.9 °F 82.6 °F 57.9 °F 42% 30.22 in 10.0 mi East 10.4 mph - N/A   Clear
12:53 PM 84.0 °F 83.3 °F 57.0 °F 40% 30.20 in 10.0 mi East 6.9 mph - N/A   Clear
1:53 PM 84.9 °F 83.6 °F 55.0 °F 36% 30.18 in 10.0 mi Variable 3.5 mph - N/A   Clear
2:53 PM 84.9 °F 83.7 °F 55.9 °F 37% 30.17 in 10.0 mi ENE 6.9 mph - N/A   Clear
3:53 PM 87.1 °F 85.9 °F 57.0 °F 36% 30.14 in 10.0 mi Variable 6.9 mph - N/A   Clear
4:53 PM 86.0 °F 85.0 °F 57.9 °F 38% 30.13 in 10.0 mi NE 8.1 mph - N/A   Clear
5:53 PM 84.0 °F 83.3 °F 57.0 °F 40% 30.13 in 10.0 mi NE 8.1 mph - N/A   Clear
6:53 PM 75.9 °F - 60.1 °F 58% 30.13 in 10.0 mi NE 3.5 mph - N/A   Clear
7:53 PM 66.0 °F - 61.0 °F 84% 30.13 in 10.0 mi Calm Calm - N/A   Clear
8:53 PM 63.0 °F - 60.1 °F 90% 30.14 in 10.0 mi Calm Calm - N/A   Clear
9:53 PM 62.1 °F - 60.1 °F 93% 30.14 in 10.0 mi Calm Calm - N/A   Clear
10:53 PM 61.0 °F - 59.0 °F 93% 30.14 in 10.0 mi Calm Calm - N/A   Clear
11:53 PM 60.1 °F - 57.9 °F 93% 30.13 in 10.0 mi Calm Calm - N/A   Clear